Flag for Poland Weather past 2 weeks in Dąbrowa Górnicza, Poland

Now
41 °F

Fog.


Feels Like: 37 °F
Forecast: 40 / 49 °F
Wind: 6 mph from West

Location: Katowice Airport

Current Time: Mar 28, 2015 at 12:15:01 AM

Latest Report: Mar 28, 2015 at 12:00 AM


Visibility: 3 mi

Pressure: 30.01 "Hg

Humidity: 93%

Dew point: 39 °F

Location of Dąbrowa GórniczaLocation

Historic Weather in Dąbrowa Górnicza — Graph

°F

Dąbrowa Górnicza temperature yesterday

Maximum temperature yesterday: 50 °F (at 12:30 AM)
Minimum temperature yesterday: 41 °F (at 9:00 PM)
Average temperature yesterday: 45 °F

Past Weeks' High & Low Weather Summary

 TemperatureHumidityPressure
High66 °F (Mar 25, 2:00 PM)100% (Mar 13, 7:30 PM)30.57 "Hg (Mar 13, 7:30 PM)
Low19 °F (Mar 23, 5:00 AM)25% (Mar 23, 1:30 PM)29.71 "Hg (Mar 27, 4:00 AM)
Average42 °F70%30.16 "Hg
* Reported Mar 12 11:00 PM — Mar 27 11:30 PM, Dąbrowa Górnicza, Weather by CustomWeather, © 2015

Note: Actual official high and low records may vary slightly from our data, if they occured in-between our weather recording intervals... More about our weather records

Advertising

Dąbrowa Górnicza weather history for previous 24 hours

 ConditionsComfort  
Time TempWeatherWind HumidityBarometerVisibility
11:30 PM
Fri, Mar 27
41 °FFog.6 mph93%30.01 "Hg3 mi
11:00 PM41 °FFog.5 mph93%30.01 "Hg3 mi
10:30 PM41 °FFog.3 mph93%30.01 "Hg2 mi
10:00 PM41 °FFog.5 mph93%30.01 "Hg2 mi
9:30 PM41 °FFog.6 mph93%29.98 "Hg2 mi
9:00 PM41 °FFog.6 mph100%29.98 "Hg2 mi
8:30 PM43 °FFog.7 mph87%29.98 "Hg3 mi
8:00 PM43 °FFog.8 mph93%29.98 "Hg2 mi
7:30 PM43 °FFog.7 mph93%29.95 "Hg2 mi
7:00 PM43 °FFog.9 mph93%29.95 "Hg2 mi
6:30 PM43 °FFog.10 mph93%29.95 "Hg2 mi
6:00 PM43 °FFog.7 mph93%29.95 "Hg2 mi
5:30 PM43 °FFog.5 mph93%29.95 "Hg2 mi
5:00 PM43 °FFog.8 mph93%29.92 "Hg3 mi
4:30 PM43 °FFog.10 mph93%29.92 "Hg3 mi
4:00 PM43 °FBroken clouds.12 mph93%29.92 "Hg4 mi
3:30 PM43 °FBroken clouds.12 mph93%29.89 "Hg5 mi
3:00 PM43 °FBroken clouds.15 mph93%29.89 "Hg5 mi
2:30 PM45 °FBroken clouds.10 mph93%29.89 "Hg5 mi
2:00 PM45 °FLight rain. Broken clouds.12 mph93%29.89 "Hg5 mi
1:30 PM45 °FLight rain. Broken clouds.12 mph93%29.89 "Hg5 mi
1:00 PM45 °FLight rain. Broken clouds.12 mph93%29.86 "Hg4 mi
12:30 PM45 °FSprinkles. Broken clouds.10 mph93%29.86 "Hg4 mi
12:00 PM45 °FSprinkles. Broken clouds.12 mph93%29.86 "Hg4 mi
11:30 AM45 °FRain showers. Fog.7 mph93%29.86 "Hg3 mi
11:00 AM45 °FSprinkles. Fog.12 mph93%29.83 "Hg3 mi
10:30 AM45 °FRain showers. Fog.14 mph93%29.83 "Hg2 mi
10:00 AM45 °FSprinkles. Fog.14 mph93%29.83 "Hg2 mi
9:30 AM45 °FSprinkles. Fog.14 mph100%29.80 "Hg2 mi
9:00 AM46 °FRain showers. Fog.13 mph93%29.80 "Hg1 mi
8:30 AM48 °FSprinkles. Fog.12 mph94%29.77 "Hg1 mi
8:00 AM48 °FFog.5 mph100%29.77 "Hg1 mi
7:30 AM48 °FSprinkles. Fog.1 mph94%29.77 "Hg1 mi
7:00 AM46 °FSprinkles. Fog.5 mph100%29.74 "Hg1 mi
6:30 AM46 °FFog.1 mph100%29.74 "Hg2 mi
6:00 AM46 °FFog.3 mph100%29.74 "Hg2 mi
5:30 AM46 °FFog.1 mph100%29.71 "Hg2 mi
5:00 AM46 °FFog.5 mph100%29.71 "Hg2 mi
4:00 AM46 °FFog.2 mph100%29.71 "Hg1 mi
3:30 AM46 °FFog.2 mph100%29.74 "Hg2 mi
3:00 AM48 °FSprinkles. Fog.3 mph94%29.74 "Hg2 mi
2:30 AM48 °FSprinkles. Partly cloudy.3 mph94%29.74 "Hg4 mi
2:00 AM48 °FSprinkles. Fog.3 mph94%29.74 "Hg3 mi
1:30 AM50 °FSprinkles. Passing clouds.6 mph82%29.74 "Hg4 mi
1:00 AM48 °FFog.6 mph94%29.74 "Hg3 mi
12:30 AM50 °FPassing clouds.6 mph88%29.74 "Hg4 mi
12:00 AM48 °FFog.3 mph94%29.74 "Hg2 mi
Weather by CustomWeather, © 2015

See weather overviewHow to use our weather pages